AirNav   Air Wisconsin Up To $57,000 Bonus
 
 915 users online  

9VA5 Bluegrass Heliport
Bluemont, Virginia, USA

GOING TO BLUEMONT?


FAA INFORMATION EFFECTIVE 26 JANUARY 2023

Location

FAA Identifier: 9VA5
Lat/Long: 39-03-47.9160N 077-53-24.1210W
39-03.798600N 077-53.402017W
39.0633100,-77.8900336
(estimated)
Elevation: 1707.4 ft. / 520 m (estimated)
Variation: 10W (2010)
From city: 3 miles E of BLUEMONT, VA
Time zone: UTC -5 (UTC -4 during Daylight Saving Time)
Zip code: 20135

Heliport Operations

Heliport use: Private use. Permission required prior to landing
Activation date: 09/2004
Control tower: no
ARTCC: WASHINGTON CENTER
FSS: LEESBURG FLIGHT SERVICE STATION
NOTAMs facility: FDC (NOTAM-D service not available)
Attendance: UNATNDD
Wind indicator: lighted
Segmented circle: no
Lights: FOR PERIMETER LGTS CALL 540-542-2013.

Heliport Communications

WX AWOS-3 at OKV (13 nm W): 124.85 (540-662-6970)
WX AWOS-3 at JYO (16 nm E): 125.225 (703-777-3781)
WX AWOS-3 at FRR (19 nm SW): 121.85 (540-635-5377)

Nearby radio navigation aids

VOR radial/distance  VOR name  Freq  Var
LDNr056/19.3LINDEN VORTAC114.3006W
MRBr193/19.4MARTINSBURG VORTAC112.1007W
AMLr299/21.2ARMEL VOR/DME113.5008W
CSNr003/25.4CASANOVA VORTAC116.3006W
FDKr237/(31.8)FREDERICK VOR109.0008W
HGRr189/(38.1)HAGERSTOWN VOR109.8007W

 
NDB name  Hdg/Dist  Freq  Var  ID
CAVERNS060/34.924509WLUA .-.. ..- .-
NAILR011/36.535110WMSQ -- ... --.-
GEORGETOWN292/36.632309WGTN --. - -.

Heliport Services

Runway Information

Helipad H1

Dimensions: 50 x 50 ft. / 15 x 15 m
Surface: concrete
Runway edge lights: PERI
Latitude: 39-03.798600N
Longitude: 077-53.402017W
Elevation: 1707.4 ft.
Traffic pattern: leftleft

Heliport Ownership and Management from official FAA records

Ownership: Publicly-owned
Owner: FEMA
19844 BLUE RIDGE MOUNTAIN RD
BLUEMONT, VA 20135
Phone 540-542-3092
Manager: MICHAEL FERRELL
19844 BLUE RIDGE MOUNTAIN RD
BLUEMONT, VA 20135
Phone 540-542-3439

Additional Remarks

50 FT TREES 200 FT W AND 50 FT BLDG 360 FT E OF HELIPAD.
FOR CD CTC POTOMAC APCH AT 866-709-4993.
REMARKS: NORMAL OPR HRS 1245-2130Z++ M-F. AUTH MIL ACFT ONLY, PPR REQUIRED, 540-542-3014
COMMUNICATIONS: ADVISORY 126.2 241.0; POTOMAC APPROACH 120.45 306.925.

Instrument Procedures

NOTE: All procedures below are presented as PDF files. If you need a reader for these files, you should download the free Adobe Reader.

NOT FOR NAVIGATION. Please procure official charts for flight.
FAA instrument procedures published for use from 26 January 2023 at 0901Z to 23 February 2023 at 0900z.

 
IAPs - Instrument Approach Procedures
COPTER RNAV (GPS) 037   download
COPTER VOR/DME OR TACAN 056   download
NOTE: Special Take-Off Minimums/Departure Procedures apply   download (361KB)

Other nearby airports with instrument procedures:

2VG2 - Upperville Airport (6 nm S)
KOKV - Winchester Regional Airport (13 nm W)
KJYO - Leesburg Executive Airport (16 nm E)
KFRR - Front Royal-Warren County Airport (19 nm SW)
KMRB - Eastern WV Regional Airport/Shepherd Field (21 nm N)
 
Loc | Ops | Rwys | IFR | FBO | Links
Com | Nav | Svcs | Stats | Notes
Area around 9VA5 (Bluegrass Heliport)
 
Road maps at: MapQuest Bing Google
 
Aerial photo
No photo
 
Sectional chart

 
Airport distance calculator
Flying to Bluegrass Heliport? Find the distance to fly.

From to 9VA5

Sunrise and sunset
Times for 08-Feb-2023
 Local
(UTC-5)
 Zulu
(UTC)
Morning civil twilight06:4411:44
Sunrise07:1212:12
Sunset17:3922:39
Evening civil twilight18:0723:07

Current date and time
Zulu (UTC)  09-Feb-2023 04:26:09
Local (UTC-5)  08-Feb-2023 23:26:09
 
METAR
KOKV 
13nm W 
090415Z AUTO 00000KT 10SM CLR 06/M02 A3026 RMK AO2
KJYO 
15nm E 
090415Z AUTO 00000KT 10SM CLR 07/00 A3030 RMK AO2
KFRR 
19nm SW 
090415Z AUTO 00000KT 10SM CLR 08/M01 A3026 RMK AO1
KMRB 
21nm N 
090353Z AUTO 00000KT 10SM CLR 03/M03 A3027 RMK AO2 SLP251 T00331028
KIAD 
22nm E 
090352Z 00000KT 10SM SCT080 SCT250 06/M01 A3029 RMK AO2 SLP256 T00611006
TAF
KMRB 
21nm N 
081743Z 0818/0918 26008G16KT P6SM SCT250 FM082000 30007KT P6SM SCT250 FM082300 01004KT P6SM SCT250 FM090700 12003KT P6SM BKN110 FM091400 16010G18KT P6SM OVC030 FM091700 17013G21KT P6SM OVC040
KIAD 
22nm E 
082056Z 0821/0924 32008KT P6SM SCT250 FM090000 05003KT P6SM SCT150 FM090500 13003KT P6SM BKN140 FM091100 15006KT P6SM BKN050 FM091500 17011G18KT P6SM BKN040 FM091800 18014G22KT P6SM BKN040
NOTAMs
Click for the latest NOTAMs
NOTAMs are issued by the DoD/FAA and will open in a separate window not controlled by AirNav.

 

 
 

Would you like to see your business listed on this page?

 If your business provides an interesting product or service to pilots, flight crews, aircraft, or users of the Bluegrass Heliport, you should consider listing it here.  To start the listing process, click on the button below
 
Add a business
 

Other Pages about Bluegrass Heliport

Update a link
 
Copyright © AirNav, LLC. All rights reserved. Privacy Policy  Contact